Year,Month,Day,Hour,Minute,Value (Times are PST for temperature in C)
2011,07,24,00,00,13.10
2011,07,24,00,01,13.10
2011,07,24,00,02,13.10
2011,07,24,00,03,13.10
2011,07,24,00,04,13.10
2011,07,24,00,05,13.10
2011,07,24,00,06,13.10
2011,07,24,00,07,13.00
2011,07,24,00,08,13.00
2011,07,24,00,09,13.00
2011,07,24,00,10,13.00
2011,07,24,00,11,13.00
2011,07,24,00,12,13.00
2011,07,24,00,13,12.90
2011,07,24,00,14,12.90
2011,07,24,00,15,12.90
2011,07,24,00,16,12.90
2011,07,24,00,17,13.00
2011,07,24,00,18,13.00
2011,07,24,00,19,13.00
2011,07,24,00,20,13.00
2011,07,24,00,21,13.10
2011,07,24,00,22,13.10
2011,07,24,00,23,13.00
2011,07,24,00,24,13.00
2011,07,24,00,25,13.00
2011,07,24,00,26,13.00
2011,07,24,00,27,12.90
2011,07,24,00,28,12.90
2011,07,24,00,29,12.80
2011,07,24,00,30,12.80
2011,07,24,00,31,12.80
2011,07,24,00,32,12.80
2011,07,24,00,33,12.80
2011,07,24,00,34,12.80
2011,07,24,00,35,12.80
2011,07,24,00,36,12.80
2011,07,24,00,37,12.70
2011,07,24,00,38,12.70
2011,07,24,00,39,12.70
2011,07,24,00,40,12.70
2011,07,24,00,41,12.70
2011,07,24,00,42,12.80
2011,07,24,00,43,12.80
2011,07,24,00,44,12.70
2011,07,24,00,45,12.70
2011,07,24,00,46,12.70
2011,07,24,00,47,12.70
2011,07,24,00,48,12.70
2011,07,24,00,49,12.70
2011,07,24,00,50,12.70
2011,07,24,00,51,12.70
2011,07,24,00,52,12.70
2011,07,24,00,53,12.70
2011,07,24,00,54,12.80
2011,07,24,00,55,12.80
2011,07,24,00,56,12.80
2011,07,24,00,57,12.80
2011,07,24,00,58,12.80
2011,07,24,00,59,12.80
2011,07,24,01,00,12.80
2011,07,24,01,01,12.80
2011,07,24,01,02,12.70
2011,07,24,01,03,12.70
2011,07,24,01,04,12.70
2011,07,24,01,05,12.80
2011,07,24,01,06,12.80
2011,07,24,01,07,12.80
2011,07,24,01,08,12.80
2011,07,24,01,09,12.90
2011,07,24,01,10,12.90
2011,07,24,01,11,12.90
2011,07,24,01,12,12.90
2011,07,24,01,13,12.90
2011,07,24,01,14,12.90
2011,07,24,01,15,12.90
2011,07,24,01,16,12.80
2011,07,24,01,17,12.80
2011,07,24,01,18,12.80
2011,07,24,01,19,12.80
2011,07,24,01,20,12.80
2011,07,24,01,21,12.70
2011,07,24,01,22,12.70
2011,07,24,01,23,12.70
2011,07,24,01,24,12.70
2011,07,24,01,25,12.70
2011,07,24,01,26,12.70
2011,07,24,01,27,12.70
2011,07,24,01,28,12.60
2011,07,24,01,29,12.60
2011,07,24,01,30,12.50
2011,07,24,01,31,12.50
2011,07,24,01,32,12.40
2011,07,24,01,33,12.40
2011,07,24,01,34,12.40
2011,07,24,01,35,12.40
2011,07,24,01,36,12.30
2011,07,24,01,37,12.30
2011,07,24,01,38,12.30
2011,07,24,01,39,12.30
2011,07,24,01,40,12.30
2011,07,24,01,41,12.30
2011,07,24,01,42,12.30
2011,07,24,01,43,12.20
2011,07,24,01,44,12.20
2011,07,24,01,45,12.20
2011,07,24,01,46,12.20
2011,07,24,01,47,12.20
2011,07,24,01,48,12.20
2011,07,24,01,49,12.20
2011,07,24,01,50,12.30
2011,07,24,01,51,12.30
2011,07,24,01,52,12.30
2011,07,24,01,53,12.30
2011,07,24,01,54,12.20
2011,07,24,01,55,12.20
2011,07,24,01,56,12.30
2011,07,24,01,57,12.30
2011,07,24,01,58,12.30
2011,07,24,01,59,12.20
2011,07,24,02,00,12.20
2011,07,24,02,01,12.20
2011,07,24,02,02,12.20
2011,07,24,02,03,12.20
2011,07,24,02,04,12.20
2011,07,24,02,05,12.20
2011,07,24,02,06,12.20
2011,07,24,02,07,12.20
2011,07,24,02,08,12.10
2011,07,24,02,09,12.10
2011,07,24,02,10,12.10
2011,07,24,02,11,12.10
2011,07,24,02,12,12.10
2011,07,24,02,13,12.10
2011,07,24,02,14,12.10
2011,07,24,02,15,12.10
2011,07,24,02,16,12.10
2011,07,24,02,17,12.10
2011,07,24,02,18,12.10
2011,07,24,02,19,12.10
2011,07,24,02,20,12.10
2011,07,24,02,21,12.10
2011,07,24,02,22,12.00
2011,07,24,02,23,12.00
2011,07,24,02,24,12.00
2011,07,24,02,25,12.00
2011,07,24,02,26,12.00
2011,07,24,02,27,12.00
2011,07,24,02,28,12.00
2011,07,24,02,29,12.00
2011,07,24,02,30,12.10
2011,07,24,02,31,12.10
2011,07,24,02,32,12.10
2011,07,24,02,33,12.10
2011,07,24,02,34,12.00
2011,07,24,02,35,12.00
2011,07,24,02,36,12.00
2011,07,24,02,37,12.00
2011,07,24,02,38,12.00
2011,07,24,02,39,12.00
2011,07,24,02,40,12.00
2011,07,24,02,41,12.00
2011,07,24,02,42,12.00
2011,07,24,02,43,12.00
2011,07,24,02,44,12.00
2011,07,24,02,45,11.90
2011,07,24,02,46,11.90
2011,07,24,02,47,11.90
2011,07,24,02,48,11.90
2011,07,24,02,49,11.90
2011,07,24,02,50,11.90
2011,07,24,02,51,11.90
2011,07,24,02,52,11.90
2011,07,24,02,53,11.90
2011,07,24,02,54,11.90
2011,07,24,02,55,11.90
2011,07,24,02,56,11.90
2011,07,24,02,57,11.90
2011,07,24,02,58,11.90
2011,07,24,02,59,11.90
2011,07,24,03,00,11.90
2011,07,24,03,01,11.90
2011,07,24,03,02,11.90
2011,07,24,03,03,11.90
2011,07,24,03,04,12.00
2011,07,24,03,05,12.00
2011,07,24,03,06,12.00
2011,07,24,03,07,12.00
2011,07,24,03,08,12.00
2011,07,24,03,09,12.00
2011,07,24,03,10,12.00
2011,07,24,03,11,12.00
2011,07,24,03,12,11.90
2011,07,24,03,13,11.90
2011,07,24,03,14,11.90
2011,07,24,03,15,11.80
2011,07,24,03,16,11.80
2011,07,24,03,17,11.80
2011,07,24,03,18,11.80
2011,07,24,03,19,11.80
2011,07,24,03,20,11.80
2011,07,24,03,21,11.80
2011,07,24,03,22,11.80
2011,07,24,03,23,11.80
2011,07,24,03,24,11.80
2011,07,24,03,25,11.80
2011,07,24,03,26,11.80
2011,07,24,03,27,11.70
2011,07,24,03,28,11.70
2011,07,24,03,29,11.70
2011,07,24,03,30,11.70
2011,07,24,03,31,11.70
2011,07,24,03,32,11.70
2011,07,24,03,33,11.70
2011,07,24,03,34,11.70
2011,07,24,03,35,11.70
2011,07,24,03,36,11.70
2011,07,24,03,37,11.70
2011,07,24,03,38,11.70
2011,07,24,03,39,11.70
2011,07,24,03,40,11.70
2011,07,24,03,41,11.70
2011,07,24,03,42,11.70
2011,07,24,03,43,11.70
2011,07,24,03,44,11.70
2011,07,24,03,45,11.60
2011,07,24,03,46,11.60
2011,07,24,03,47,11.60
2011,07,24,03,48,11.60
2011,07,24,03,49,11.50
2011,07,24,03,50,11.50
2011,07,24,03,51,11.50
2011,07,24,03,52,11.50
2011,07,24,03,53,11.50
2011,07,24,03,54,11.50
2011,07,24,03,55,11.50
2011,07,24,03,56,11.50
2011,07,24,03,57,11.50
2011,07,24,03,58,11.40
2011,07,24,03,59,11.50
2011,07,24,04,00,11.40
2011,07,24,04,01,11.40
2011,07,24,04,02,11.40
2011,07,24,04,03,11.40
2011,07,24,04,04,11.40
2011,07,24,04,05,11.40
2011,07,24,04,06,11.30
2011,07,24,04,07,11.30
2011,07,24,04,08,11.30
2011,07,24,04,09,11.30
2011,07,24,04,10,11.30
2011,07,24,04,11,11.30
2011,07,24,04,12,11.30
2011,07,24,04,13,11.30
2011,07,24,04,14,11.30
2011,07,24,04,15,11.30
2011,07,24,04,16,11.30
2011,07,24,04,17,11.30
2011,07,24,04,18,11.30
2011,07,24,04,19,11.30
2011,07,24,04,20,11.30
2011,07,24,04,21,11.30
2011,07,24,04,22,11.20
2011,07,24,04,23,11.20
2011,07,24,04,24,11.20
2011,07,24,04,25,11.20
2011,07,24,04,26,11.30
2011,07,24,04,27,11.30
2011,07,24,04,28,11.30
2011,07,24,04,29,11.30
2011,07,24,04,30,11.30
2011,07,24,04,31,11.30
2011,07,24,04,32,11.30
2011,07,24,04,33,11.30
2011,07,24,04,34,11.30
2011,07,24,04,35,11.40
2011,07,24,04,36,11.40
2011,07,24,04,37,11.40
2011,07,24,04,38,11.40
2011,07,24,04,39,11.40
2011,07,24,04,40,11.40
2011,07,24,04,41,11.40
2011,07,24,04,42,11.30
2011,07,24,04,43,11.30
2011,07,24,04,44,11.30
2011,07,24,04,45,11.30
2011,07,24,04,46,11.30
2011,07,24,04,47,11.30
2011,07,24,04,48,11.30
2011,07,24,04,49,11.30
2011,07,24,04,50,11.30
2011,07,24,04,51,11.30
2011,07,24,04,52,11.20
2011,07,24,04,53,11.20
2011,07,24,04,54,11.20
2011,07,24,04,55,11.20
2011,07,24,04,56,11.20
2011,07,24,04,57,11.10
2011,07,24,04,58,11.10
2011,07,24,04,59,11.10
2011,07,24,05,00,11.10
2011,07,24,05,01,11.10
2011,07,24,05,02,11.10
2011,07,24,05,03,11.00
2011,07,24,05,04,11.00
2011,07,24,05,05,11.00
2011,07,24,05,06,11.00
2011,07,24,05,07,11.00
2011,07,24,05,08,11.00
2011,07,24,05,09,11.00
2011,07,24,05,10,11.00
2011,07,24,05,11,11.00
2011,07,24,05,12,11.00
2011,07,24,05,13,11.00
2011,07,24,05,14,11.00
2011,07,24,05,15,10.90
2011,07,24,05,16,10.90
2011,07,24,05,17,10.90
2011,07,24,05,18,10.90
2011,07,24,05,19,10.90
2011,07,24,05,20,10.90
2011,07,24,05,21,10.90
2011,07,24,05,22,10.80
2011,07,24,05,23,10.80
2011,07,24,05,24,10.80
2011,07,24,05,25,10.80
2011,07,24,05,26,10.80
2011,07,24,05,27,10.80
2011,07,24,05,28,10.80
2011,07,24,05,29,10.80
2011,07,24,05,30,10.80
2011,07,24,05,31,10.80
2011,07,24,05,32,10.80
2011,07,24,05,33,10.80
2011,07,24,05,34,10.80
2011,07,24,05,35,10.80
2011,07,24,05,36,10.70
2011,07,24,05,37,10.70
2011,07,24,05,38,10.70
2011,07,24,05,39,10.70
2011,07,24,05,40,10.70
2011,07,24,05,41,10.70
2011,07,24,05,42,10.70
2011,07,24,05,43,10.70
2011,07,24,05,44,10.70
2011,07,24,05,45,10.70
2011,07,24,05,46,10.70
2011,07,24,05,47,10.70
2011,07,24,05,48,10.80
2011,07,24,05,49,10.80
2011,07,24,05,50,10.80
2011,07,24,05,51,10.80
2011,07,24,05,52,10.80
2011,07,24,05,53,10.80
2011,07,24,05,54,10.80
2011,07,24,05,55,10.70
2011,07,24,05,56,10.80
2011,07,24,05,57,10.80
2011,07,24,05,58,10.80
2011,07,24,05,59,10.80
2011,07,24,06,00,10.80
2011,07,24,06,01,10.90
2011,07,24,06,02,10.90
2011,07,24,06,03,10.90
2011,07,24,06,04,10.90
2011,07,24,06,05,10.90
2011,07,24,06,06,10.90
2011,07,24,06,07,10.90
2011,07,24,06,08,10.80
2011,07,24,06,09,10.80
2011,07,24,06,10,10.80
2011,07,24,06,11,10.80
2011,07,24,06,12,10.80
2011,07,24,06,13,10.80
2011,07,24,06,14,10.90
2011,07,24,06,15,10.90
2011,07,24,06,16,10.90
2011,07,24,06,17,10.90
2011,07,24,06,18,11.00
2011,07,24,06,19,11.00
2011,07,24,06,20,11.00
2011,07,24,06,21,11.00
2011,07,24,06,22,11.10
2011,07,24,06,23,11.00
2011,07,24,06,24,11.00
2011,07,24,06,25,11.10
2011,07,24,06,26,11.10
2011,07,24,06,27,11.10
2011,07,24,06,28,11.20
2011,07,24,06,29,11.20
2011,07,24,06,30,11.20
2011,07,24,06,31,11.20
2011,07,24,06,32,11.30
2011,07,24,06,33,11.30
2011,07,24,06,34,11.30
2011,07,24,06,35,11.30
2011,07,24,06,36,11.40
2011,07,24,06,37,11.40
2011,07,24,06,38,11.40
2011,07,24,06,39,11.50
2011,07,24,06,40,11.50
2011,07,24,06,41,11.60
2011,07,24,06,42,11.60
2011,07,24,06,43,11.60
2011,07,24,06,44,11.60
2011,07,24,06,45,11.70
2011,07,24,06,46,11.70
2011,07,24,06,47,11.80
2011,07,24,06,48,11.90
2011,07,24,06,49,12.10
2011,07,24,06,50,12.20
2011,07,24,06,51,12.30
2011,07,24,06,52,12.50
2011,07,24,06,53,12.60
2011,07,24,06,54,12.70
2011,07,24,06,55,12.70
2011,07,24,06,56,12.80
2011,07,24,06,57,12.80
2011,07,24,06,58,12.80
2011,07,24,06,59,12.80
2011,07,24,07,00,12.80
2011,07,24,07,01,12.90
2011,07,24,07,02,13.00
2011,07,24,07,03,13.00
2011,07,24,07,04,13.10
2011,07,24,07,05,13.20
2011,07,24,07,06,13.30
2011,07,24,07,07,13.40
2011,07,24,07,08,13.60
2011,07,24,07,09,13.70
2011,07,24,07,10,13.80
2011,07,24,07,11,13.80
2011,07,24,07,12,13.90
2011,07,24,07,13,14.00
2011,07,24,07,14,14.10
2011,07,24,07,15,14.20
2011,07,24,07,16,14.30
2011,07,24,07,17,14.40
2011,07,24,07,18,14.50
2011,07,24,07,19,14.60
2011,07,24,07,20,14.60
2011,07,24,07,21,14.70
2011,07,24,07,22,14.80
2011,07,24,07,23,14.90
2011,07,24,07,24,15.00
2011,07,24,07,25,15.00
2011,07,24,07,26,15.00
2011,07,24,07,27,15.00
2011,07,24,07,28,15.00
2011,07,24,07,29,15.00
2011,07,24,07,30,15.00
2011,07,24,07,31,15.00
2011,07,24,07,32,15.00
2011,07,24,07,33,15.00
2011,07,24,07,34,15.00
2011,07,24,07,35,15.10
2011,07,24,07,36,15.20
2011,07,24,07,37,15.30
2011,07,24,07,38,15.40
2011,07,24,07,39,15.50
2011,07,24,07,40,15.60
2011,07,24,07,41,15.70
2011,07,24,07,42,15.80
2011,07,24,07,43,16.00
2011,07,24,07,44,16.10
2011,07,24,07,45,16.20
2011,07,24,07,46,16.30
2011,07,24,07,47,16.40
2011,07,24,07,48,16.50
2011,07,24,07,49,16.60
2011,07,24,07,50,16.70
2011,07,24,07,51,16.80
2011,07,24,07,52,16.90
2011,07,24,07,53,17.00
2011,07,24,07,54,17.10
2011,07,24,07,55,17.20
2011,07,24,07,56,17.30
2011,07,24,07,57,17.40
2011,07,24,07,58,17.50
2011,07,24,07,59,17.60
2011,07,24,08,00,17.70
2011,07,24,08,01,17.80
2011,07,24,08,02,17.90
2011,07,24,08,03,17.90
2011,07,24,08,04,18.00
2011,07,24,08,05,18.10
2011,07,24,08,06,18.10
2011,07,24,08,07,18.20
2011,07,24,08,08,18.30
2011,07,24,08,09,18.30
2011,07,24,08,10,18.40
2011,07,24,08,11,18.50
2011,07,24,08,12,18.60
2011,07,24,08,13,18.60
2011,07,24,08,14,18.70
2011,07,24,08,15,18.70
2011,07,24,08,16,18.80
2011,07,24,08,17,18.80
2011,07,24,08,18,18.90
2011,07,24,08,19,18.90
2011,07,24,08,20,18.90
2011,07,24,08,21,18.90
2011,07,24,08,22,18.90
2011,07,24,08,23,18.90
2011,07,24,08,24,18.90
2011,07,24,08,25,18.90
2011,07,24,08,26,18.80
2011,07,24,08,27,18.70
2011,07,24,08,28,18.60
2011,07,24,08,29,18.60
2011,07,24,08,30,18.60
2011,07,24,08,31,18.60
2011,07,24,08,32,18.60
2011,07,24,08,33,18.60
2011,07,24,08,34,18.60
2011,07,24,08,35,18.60
2011,07,24,08,36,18.60
2011,07,24,08,37,18.60
2011,07,24,08,38,18.60
2011,07,24,08,39,18.60
2011,07,24,08,40,18.60
2011,07,24,08,41,18.60
2011,07,24,08,42,18.60
2011,07,24,08,43,18.60
2011,07,24,08,44,18.70
2011,07,24,08,45,18.70
2011,07,24,08,46,18.70
2011,07,24,08,47,18.70
2011,07,24,08,48,18.70
2011,07,24,08,49,18.70
2011,07,24,08,50,18.80
2011,07,24,08,51,18.80
2011,07,24,08,52,18.80
2011,07,24,08,53,18.80
2011,07,24,08,54,18.80
2011,07,24,08,55,18.80
2011,07,24,08,56,18.80
2011,07,24,08,57,18.80
2011,07,24,08,58,18.80
2011,07,24,08,59,18.70
2011,07,24,09,00,18.70
2011,07,24,09,01,18.70
2011,07,24,09,02,18.60
2011,07,24,09,03,18.60
2011,07,24,09,04,18.60
2011,07,24,09,05,18.60
2011,07,24,09,06,18.70
2011,07,24,09,07,18.70
2011,07,24,09,08,18.80
2011,07,24,09,09,18.80
2011,07,24,09,10,18.80
2011,07,24,09,11,18.90
2011,07,24,09,12,19.00
2011,07,24,09,13,19.10
2011,07,24,09,14,19.20
2011,07,24,09,15,19.30
2011,07,24,09,16,19.40
2011,07,24,09,17,19.40
2011,07,24,09,18,19.50
2011,07,24,09,19,19.50
2011,07,24,09,20,19.40
2011,07,24,09,21,19.50
2011,07,24,09,22,19.50
2011,07,24,09,23,19.50
2011,07,24,09,24,19.50
2011,07,24,09,25,19.60
2011,07,24,09,26,19.60
2011,07,24,09,27,19.70
2011,07,24,09,28,19.70
2011,07,24,09,29,19.80
2011,07,24,09,30,19.90
2011,07,24,09,31,19.90
2011,07,24,09,32,19.90
2011,07,24,09,33,20.00
2011,07,24,09,34,20.00
2011,07,24,09,35,20.10
2011,07,24,09,36,20.20
2011,07,24,09,37,20.20
2011,07,24,09,38,20.20
2011,07,24,09,39,20.10
2011,07,24,09,40,20.00
2011,07,24,09,41,19.90
2011,07,24,09,42,19.90
2011,07,24,09,43,19.90
2011,07,24,09,44,20.00
2011,07,24,09,45,20.10
2011,07,24,09,46,20.10
2011,07,24,09,47,20.20
2011,07,24,09,48,20.20
2011,07,24,09,49,20.10
2011,07,24,09,50,20.10
2011,07,24,09,51,20.00
2011,07,24,09,52,20.00
2011,07,24,09,53,19.90
2011,07,24,09,54,19.80
2011,07,24,09,55,19.60
2011,07,24,09,56,19.50
2011,07,24,09,57,19.50
2011,07,24,09,58,19.50
2011,07,24,09,59,19.50
2011,07,24,10,00,19.40
2011,07,24,10,01,19.40
2011,07,24,10,02,19.20
2011,07,24,10,03,19.10
2011,07,24,10,04,19.00
2011,07,24,10,05,19.00
2011,07,24,10,06,18.90
2011,07,24,10,07,18.90
2011,07,24,10,08,18.90
2011,07,24,10,09,18.90
2011,07,24,10,10,18.90
2011,07,24,10,11,18.90
2011,07,24,10,12,18.90
2011,07,24,10,13,19.00
2011,07,24,10,14,19.00
2011,07,24,10,15,19.00
2011,07,24,10,16,19.00
2011,07,24,10,17,19.00
2011,07,24,10,18,18.90
2011,07,24,10,19,18.90
2011,07,24,10,20,18.90
2011,07,24,10,21,18.90
2011,07,24,10,22,18.80
2011,07,24,10,23,18.80
2011,07,24,10,24,18.70
2011,07,24,10,25,18.70
2011,07,24,10,26,18.60
2011,07,24,10,27,18.60
2011,07,24,10,28,18.60
2011,07,24,10,29,18.50
2011,07,24,10,30,18.40
2011,07,24,10,31,18.40
2011,07,24,10,32,18.50
2011,07,24,10,33,18.60
2011,07,24,10,34,18.60
2011,07,24,10,35,18.60
2011,07,24,10,36,18.60
2011,07,24,10,37,18.60
2011,07,24,10,38,18.60
2011,07,24,10,39,18.60
2011,07,24,10,40,18.60
2011,07,24,10,41,18.60
2011,07,24,10,42,18.60
2011,07,24,10,43,18.60
2011,07,24,10,44,18.60
2011,07,24,10,45,18.60
2011,07,24,10,46,18.70
2011,07,24,10,47,18.70
2011,07,24,10,48,18.60
2011,07,24,10,49,18.60
2011,07,24,10,50,18.60
2011,07,24,10,51,18.60
2011,07,24,10,52,18.60
2011,07,24,10,53,18.60
2011,07,24,10,54,18.60
2011,07,24,10,55,18.60
2011,07,24,10,56,18.60
2011,07,24,10,57,18.60
2011,07,24,10,58,18.60
2011,07,24,10,59,18.60
2011,07,24,11,00,18.60
2011,07,24,11,01,18.60
2011,07,24,11,02,18.60
2011,07,24,11,03,18.60
2011,07,24,11,04,18.60
2011,07,24,11,05,18.60
2011,07,24,11,06,18.70
2011,07,24,11,07,18.60
2011,07,24,11,08,18.60
2011,07,24,11,09,18.60
2011,07,24,11,10,18.60
2011,07,24,11,11,18.50
2011,07,24,11,12,18.60
2011,07,24,11,13,18.60
2011,07,24,11,14,18.60
2011,07,24,11,15,18.60
2011,07,24,11,16,18.60
2011,07,24,11,17,18.70
2011,07,24,11,18,18.70
2011,07,24,11,19,18.70
2011,07,24,11,20,18.80
2011,07,24,11,21,18.80
2011,07,24,11,22,18.90
2011,07,24,11,23,18.90
2011,07,24,11,24,18.80
2011,07,24,11,25,18.80
2011,07,24,11,26,18.80
2011,07,24,11,27,18.80
2011,07,24,11,28,18.80
2011,07,24,11,29,18.80
2011,07,24,11,30,18.70
2011,07,24,11,31,18.70
2011,07,24,11,32,18.80
2011,07,24,11,33,18.80
2011,07,24,11,34,18.70
2011,07,24,11,35,18.70
2011,07,24,11,36,18.70
2011,07,24,11,37,18.60
2011,07,24,11,38,18.50
2011,07,24,11,39,18.50
2011,07,24,11,40,18.40
2011,07,24,11,41,18.40
2011,07,24,11,42,18.40
2011,07,24,11,43,18.40
2011,07,24,11,44,18.50
2011,07,24,11,45,18.60
2011,07,24,11,46,18.60
2011,07,24,11,47,18.70
2011,07,24,11,48,18.80
2011,07,24,11,49,18.80
2011,07,24,11,50,18.90
2011,07,24,11,51,18.90
2011,07,24,11,52,19.00
2011,07,24,11,53,19.10
2011,07,24,11,54,19.20
2011,07,24,11,55,19.10
2011,07,24,11,56,19.10
2011,07,24,11,57,19.00
2011,07,24,11,58,19.00
2011,07,24,11,59,18.90
2011,07,24,12,00,18.90
2011,07,24,12,01,18.90
2011,07,24,12,02,18.90
2011,07,24,12,03,19.00
2011,07,24,12,04,19.10
2011,07,24,12,05,19.10
2011,07,24,12,06,19.20
2011,07,24,12,07,19.20
2011,07,24,12,08,19.30
2011,07,24,12,09,19.40
2011,07,24,12,10,19.40
2011,07,24,12,11,19.40
2011,07,24,12,12,19.50
2011,07,24,12,13,19.50
2011,07,24,12,14,19.50
2011,07,24,12,15,19.60
2011,07,24,12,16,19.70
2011,07,24,12,17,19.80
2011,07,24,12,18,19.80
2011,07,24,12,19,19.80
2011,07,24,12,20,19.80
2011,07,24,12,21,19.80
2011,07,24,12,22,19.90
2011,07,24,12,23,19.90
2011,07,24,12,24,19.90
2011,07,24,12,25,19.90
2011,07,24,12,26,19.90
2011,07,24,12,27,19.90
2011,07,24,12,28,19.90
2011,07,24,12,29,20.00
2011,07,24,12,30,20.00
2011,07,24,12,31,20.10
2011,07,24,12,32,20.20
2011,07,24,12,33,20.30
2011,07,24,12,34,20.40
2011,07,24,12,35,20.50
2011,07,24,12,36,20.60
2011,07,24,12,37,20.70
2011,07,24,12,38,20.70
2011,07,24,12,39,20.70
2011,07,24,12,40,20.70
2011,07,24,12,41,20.70
2011,07,24,12,42,20.70
2011,07,24,12,43,20.60
2011,07,24,12,44,20.50
2011,07,24,12,45,20.40
2011,07,24,12,46,20.30
2011,07,24,12,47,20.30
2011,07,24,12,48,20.20
2011,07,24,12,49,20.20
2011,07,24,12,50,20.10
2011,07,24,12,51,20.10
2011,07,24,12,52,20.20
2011,07,24,12,53,20.20
2011,07,24,12,54,20.10
2011,07,24,12,55,20.20
2011,07,24,12,56,20.20
2011,07,24,12,57,20.30
2011,07,24,12,58,20.40
2011,07,24,12,59,20.50
2011,07,24,13,00,20.60
2011,07,24,13,01,20.70
2011,07,24,13,02,20.70
2011,07,24,13,03,20.80
2011,07,24,13,04,20.90
2011,07,24,13,05,20.90
2011,07,24,13,06,21.00
2011,07,24,13,07,21.00
2011,07,24,13,08,20.90
2011,07,24,13,09,20.90
2011,07,24,13,10,20.90
2011,07,24,13,11,20.90
2011,07,24,13,12,21.00
2011,07,24,13,13,21.00
2011,07,24,13,14,21.00
2011,07,24,13,15,21.10
2011,07,24,13,16,21.00
2011,07,24,13,17,21.00
2011,07,24,13,18,21.00
2011,07,24,13,19,21.10
2011,07,24,13,20,21.10
2011,07,24,13,21,21.10
2011,07,24,13,22,21.00
2011,07,24,13,23,20.90
2011,07,24,13,24,20.80
2011,07,24,13,25,20.70
2011,07,24,13,26,20.60
2011,07,24,13,27,20.60
2011,07,24,13,28,20.60
2011,07,24,13,29,20.70
2011,07,24,13,30,20.70
2011,07,24,13,31,20.80
2011,07,24,13,32,20.80
2011,07,24,13,33,20.80
2011,07,24,13,34,20.80
2011,07,24,13,35,20.90
2011,07,24,13,36,20.90
2011,07,24,13,37,20.90
2011,07,24,13,38,21.00
2011,07,24,13,39,21.10
2011,07,24,13,40,21.10
2011,07,24,13,41,21.10
2011,07,24,13,42,21.20
2011,07,24,13,43,21.20
2011,07,24,13,44,21.30
2011,07,24,13,45,21.30
2011,07,24,13,46,21.30
2011,07,24,13,47,21.30
2011,07,24,13,48,21.30
2011,07,24,13,49,21.30
2011,07,24,13,50,21.30
2011,07,24,13,51,21.40
2011,07,24,13,52,21.30
2011,07,24,13,53,21.30
2011,07,24,13,54,21.30
2011,07,24,13,55,21.20
2011,07,24,13,56,21.20
2011,07,24,13,57,21.20
2011,07,24,13,58,21.30
2011,07,24,13,59,21.30
2011,07,24,14,00,21.30
2011,07,24,14,01,21.40
2011,07,24,14,02,21.30
2011,07,24,14,03,21.30
2011,07,24,14,04,21.30
2011,07,24,14,05,21.30
2011,07,24,14,06,21.30
2011,07,24,14,07,21.40
2011,07,24,14,08,21.50
2011,07,24,14,09,21.60
2011,07,24,14,10,21.70
2011,07,24,14,11,21.70
2011,07,24,14,12,21.80
2011,07,24,14,13,21.90
2011,07,24,14,14,21.90
2011,07,24,14,15,21.90
2011,07,24,14,16,21.90
2011,07,24,14,17,22.00
2011,07,24,14,18,21.90
2011,07,24,14,19,21.90
2011,07,24,14,20,21.90
2011,07,24,14,21,22.00
2011,07,24,14,22,22.00
2011,07,24,14,23,22.10
2011,07,24,14,24,22.10
2011,07,24,14,25,22.20
2011,07,24,14,26,22.30
2011,07,24,14,27,22.30
2011,07,24,14,28,22.20
2011,07,24,14,29,22.20
2011,07,24,14,30,22.20
2011,07,24,14,31,22.20
2011,07,24,14,32,22.20
2011,07,24,14,33,22.20
2011,07,24,14,34,22.30
2011,07,24,14,35,22.30
2011,07,24,14,36,22.30
2011,07,24,14,37,22.30
2011,07,24,14,38,22.30
2011,07,24,14,39,22.30
2011,07,24,14,40,22.20
2011,07,24,14,41,22.20
2011,07,24,14,42,22.10
2011,07,24,14,43,22.10
2011,07,24,14,44,22.20
2011,07,24,14,45,22.30
2011,07,24,14,46,22.30
2011,07,24,14,47,22.40
2011,07,24,14,48,22.50
2011,07,24,14,49,22.60
2011,07,24,14,50,22.70
2011,07,24,14,51,22.70
2011,07,24,14,52,22.70
2011,07,24,14,53,22.80
2011,07,24,14,54,22.80
2011,07,24,14,55,22.80
2011,07,24,14,56,22.70
2011,07,24,14,57,22.70
2011,07,24,14,58,22.70
2011,07,24,14,59,22.60
2011,07,24,15,00,22.50
2011,07,24,15,01,22.50
2011,07,24,15,02,22.60
2011,07,24,15,03,22.60
2011,07,24,15,04,22.60
2011,07,24,15,05,22.60
2011,07,24,15,06,22.60
2011,07,24,15,07,22.70
2011,07,24,15,08,22.70
2011,07,24,15,09,22.70
2011,07,24,15,10,22.80
2011,07,24,15,11,22.80
2011,07,24,15,12,22.80
2011,07,24,15,13,22.80
2011,07,24,15,14,22.90
2011,07,24,15,15,22.90
2011,07,24,15,16,23.00
2011,07,24,15,17,23.00
2011,07,24,15,18,23.00
2011,07,24,15,19,23.00
2011,07,24,15,20,23.10
2011,07,24,15,21,23.10
2011,07,24,15,22,23.10
2011,07,24,15,23,23.20
2011,07,24,15,24,23.20
2011,07,24,15,25,23.20
2011,07,24,15,26,23.10
2011,07,24,15,27,23.10
2011,07,24,15,28,23.10
2011,07,24,15,29,23.00
2011,07,24,15,30,23.00
2011,07,24,15,31,23.10
2011,07,24,15,32,23.10
2011,07,24,15,33,23.10
2011,07,24,15,34,23.20
2011,07,24,15,35,23.20
2011,07,24,15,36,23.20
2011,07,24,15,37,23.30
2011,07,24,15,38,23.30
2011,07,24,15,39,23.40
2011,07,24,15,40,23.40
2011,07,24,15,41,23.50
2011,07,24,15,42,23.50
2011,07,24,15,43,23.50
2011,07,24,15,44,23.40
2011,07,24,15,45,23.30
2011,07,24,15,46,23.40
2011,07,24,15,47,23.40
2011,07,24,15,48,23.40
2011,07,24,15,49,23.40
2011,07,24,15,50,23.40
2011,07,24,15,51,23.50
2011,07,24,15,52,23.60
2011,07,24,15,53,23.60
2011,07,24,15,54,23.70
2011,07,24,15,55,23.80
2011,07,24,15,56,23.90
2011,07,24,15,57,23.90
2011,07,24,15,58,23.90
2011,07,24,15,59,23.80
2011,07,24,16,00,23.80
2011,07,24,16,01,23.80
2011,07,24,16,02,23.70
2011,07,24,16,03,23.70
2011,07,24,16,04,23.70
2011,07,24,16,05,23.60
2011,07,24,16,06,23.60
2011,07,24,16,07,23.60
2011,07,24,16,08,23.50
2011,07,24,16,09,23.50
2011,07,24,16,10,23.50
2011,07,24,16,11,23.50
2011,07,24,16,12,23.40
2011,07,24,16,13,23.40
2011,07,24,16,14,23.40
2011,07,24,16,15,23.40
2011,07,24,16,16,23.40
2011,07,24,16,17,23.40
2011,07,24,16,18,23.40
2011,07,24,16,19,23.30
2011,07,24,16,20,23.30
2011,07,24,16,21,23.30
2011,07,24,16,22,23.30
2011,07,24,16,23,23.30
2011,07,24,16,24,23.30
2011,07,24,16,25,23.30
2011,07,24,16,26,23.30
2011,07,24,16,27,23.30
2011,07,24,16,28,23.30
2011,07,24,16,29,23.20
2011,07,24,16,30,23.10
2011,07,24,16,31,23.10
2011,07,24,16,32,23.10
2011,07,24,16,33,23.10
2011,07,24,16,34,23.10
2011,07,24,16,35,23.00
2011,07,24,16,36,23.00
2011,07,24,16,37,22.90
2011,07,24,16,38,23.00
2011,07,24,16,39,23.00
2011,07,24,16,40,23.10
2011,07,24,16,41,23.10
2011,07,24,16,42,23.20
2011,07,24,16,43,23.20
2011,07,24,16,44,23.10
2011,07,24,16,45,23.00
2011,07,24,16,46,23.00
2011,07,24,16,47,23.10
2011,07,24,16,48,23.10
2011,07,24,16,49,23.10
2011,07,24,16,50,23.10
2011,07,24,16,51,23.10
2011,07,24,16,52,23.00
2011,07,24,16,53,23.00
2011,07,24,16,54,22.90
2011,07,24,16,55,22.90
2011,07,24,16,56,22.80
2011,07,24,16,57,22.70
2011,07,24,16,58,22.70
2011,07,24,16,59,22.70
2011,07,24,17,00,22.70
2011,07,24,17,01,22.80
2011,07,24,17,02,22.80
2011,07,24,17,03,22.90
2011,07,24,17,04,23.00
2011,07,24,17,05,23.10
2011,07,24,17,06,23.20
2011,07,24,17,07,23.20
2011,07,24,17,08,23.20
2011,07,24,17,09,23.30
2011,07,24,17,10,23.30
2011,07,24,17,11,23.30
2011,07,24,17,12,23.30
2011,07,24,17,13,23.30
2011,07,24,17,14,23.30
2011,07,24,17,15,23.40
2011,07,24,17,16,23.40
2011,07,24,17,17,23.40
2011,07,24,17,18,23.40
2011,07,24,17,19,23.50